Location: Goettingen
(51.5300°N, 9.9433°E)
Time: 19:44:24
(UTC+02:00)

ISS - Pass Details

Date: 17 July 2019
Orbit: 409 x 418 km, 51.6° (Epoch: 20 July)

Event Time Altitude Azimuth Distance (km) Brightness Sun altitude
Rises 22:15:55 0° 205° (SSW) 2,343 -0.2 -6.2°
Reaches altitude 10° 22:18:31 10° 183° (S) 1,483 -1.4 -6.5°
Maximum altitude 22:20:43 17° 142° (SE) 1,145 -2.2 -6.8°
Drops below altitude 10° 22:22:56 10° 100° (E) 1,485 -1.4 -7.0°
Sets 22:25:31 0° 79° (E) 2,349 -0.3 -7.3°
